Nogales, AZ

1:37 AM MST on February 25, 2017 (GMT -0700)
Nogales International

Weather History for KOLS - November, 2012

Change the Weather History Date:

Friday, November 9, 2012

  Actual Average (KFHU) Record (KFHU)
Temperature  
Mean Temperature 64 °F -  
Max Temperature 73 °F 67 °F 80 °F (2005)
Min Temperature 55 °F 45 °F 33 °F (2000)
Degree Days  
Heating Degree Days 1    
Growing Degree Days 14 (Base 50)    
Moisture  
Dew Point 48 °F    
Average Humidity 61    
Maximum Humidity 89    
Minimum Humidity 38    
Precipitation  
Precipitation 0.00 in - - ()
Sea Level Pressure  
Sea Level Pressure 29.83 in    
Wind  
Wind Speed 10 mph (SSW)    
Max Wind Speed 24 mph    
Max Gust Speed 32 mph    
Visibility 10 miles    
Events Rain , Thunderstorm    
Averages and records for this station are not official NWS values.
T = Trace of Precipitation, MM = Missing Value Source: NWS Daily Summary

Daily Weather History Graph

Daily Weather History Graph

Search for Another Location

Airport or City:

Trip Planner

Search our weather history database for the weather conditions in past years. The results will help you decide how hot, cold, wet, or windy it might be!

Date:

Astronomy

Nov. 09, 2012 Rise Set
Actual Time 6:46 AM MST 5:27 PM MST
Civil Twilight 6:20 AM MST 5:53 PM MST
Nautical Twilight 5:51 AM MST 6:22 PM MST
Astronomical Twilight 5:23 AM MST 6:51 PM MST
Moon 2:05 AM MST (11/9) 2:28 PM MST (11/9)
Length of Visible Light 11h 32m
Length of Day
10h 41m
Waning Crescent, 22% of the Moon is Illuminated
Nov 9
Waning Crescent
Nov 13
New
Nov 20
First Quarter
Nov 28
Full
Dec 6
Last Quarter

Hourly Weather History & Observations

Time (MST) Temp. Dew Point Humidity Pressure Visibility Wind Dir Wind Speed Gust Speed Precip Events Conditions
12:31 AM 57.9 °F 45.0 °F 62% 30.02 in 10.0 mi South 6.9 mph - N/A Thunderstorm Partly Cloudy
12:42 AM 57.9 °F 46.9 °F 67% 30.05 in 10.0 mi SW 9.2 mph - N/A Thunderstorm Thunderstorm
12:54 AM 57.0 °F 48.9 °F 74% 29.90 in 9.0 mi WSW 6.9 mph 18.4 mph 0.00 in Rain Light Rain
1:54 AM 59.0 °F 48.0 °F 67% 29.86 in 10.0 mi Calm Calm - 0.00 in Rain Light Rain
2:54 AM 60.1 °F 48.0 °F 64% 29.85 in 10.0 mi Calm Calm - 0.00 in Rain Light Rain
3:54 AM 59.0 °F 48.0 °F 67% 29.86 in 10.0 mi SE 4.6 mph - 0.00 in   Overcast
4:54 AM 55.9 °F 50.0 °F 80% 29.86 in 10.0 mi SE 8.1 mph - N/A   Overcast
5:54 AM 57.0 °F 50.0 °F 77% 29.86 in 10.0 mi SE 10.4 mph - N/A Rain Light Rain
6:54 AM 55.0 °F 52.0 °F 89% 29.88 in 10.0 mi South 5.8 mph - N/A Rain Light Rain
7:54 AM 57.0 °F 51.1 °F 81% 29.89 in 10.0 mi SSE 8.1 mph - N/A Rain Light Rain
8:54 AM 61.0 °F 48.9 °F 64% 29.87 in 10.0 mi SSE 10.4 mph - 0.00 in   Partly Cloudy
9:16 AM 64.0 °F 48.9 °F 58% 30.00 in 10.0 mi SSE 13.8 mph - N/A   Scattered Clouds
9:54 AM 66.0 °F 48.9 °F 54% 29.86 in 10.0 mi South 16.1 mph 21.9 mph N/A   Clear
10:54 AM 70.0 °F 46.9 °F 44% 29.84 in 10.0 mi SSW 21.9 mph 28.8 mph N/A   Clear
11:54 AM 69.1 °F 46.9 °F 45% 29.81 in 10.0 mi SSW 15.0 mph - N/A   Overcast
12:54 PM 71.1 °F 44.1 °F 38% 29.78 in 10.0 mi SSW 21.9 mph 29.9 mph N/A   Mostly Cloudy
1:54 PM 72.0 °F 46.0 °F 40% 29.74 in 10.0 mi SSW 17.3 mph 27.6 mph N/A   Overcast
2:54 PM 73.0 °F 46.0 °F 38% 29.71 in 10.0 mi SSW 23.0 mph 31.1 mph N/A   Partly Cloudy
3:54 PM 71.1 °F 45.0 °F 39% 29.71 in 10.0 mi SW 24.2 mph 32.2 mph N/A   Partly Cloudy
4:54 PM 69.1 °F 46.0 °F 44% 29.72 in 10.0 mi SSW 20.7 mph 29.9 mph N/A   Partly Cloudy
5:54 PM 64.0 °F 48.0 °F 56% 29.75 in 10.0 mi SSW 11.5 mph - N/A   Clear
6:54 PM 61.0 °F 48.0 °F 62% 29.77 in 10.0 mi South 6.9 mph - N/A   Clear
7:54 PM 60.1 °F 48.0 °F 64% 29.78 in 10.0 mi SSW 10.4 mph - N/A   Clear
8:54 PM 59.0 °F 48.0 °F 67% 29.78 in 10.0 mi SW 12.7 mph - N/A   Clear
9:54 PM 57.9 °F 48.0 °F 70% 29.76 in 10.0 mi South 10.4 mph - N/A   Clear
10:54 PM 57.0 °F 48.0 °F 72% 29.77 in 10.0 mi SW 15.0 mph - N/A   Clear
11:54 PM 55.9 °F 46.9 °F 72% 29.77 in 10.0 mi SW 11.5 mph 20.7 mph N/A   Clear